Flight Track Log - Related Links

Times and Time Zones

All times are in EDT time to prevent confusion due to time zone crossing. See the EJA221 flight status page for this flight to view local times or setup timezone preferences in your user account.

Time Position Orientation Groundspeed Altitude Reporting Facility
EDT Latitude Longitude Course Direction KTS MPH feet Rate Location/Type
06:20PM 38.6500 -121.5667 123° Southeast 200 230 3,800  Level Northern Cal TRACON
06:21PM 38.6167 -121.5000 123° Southeast 231 266 6,100 2,900 Climbing Northern Cal TRACON
06:22PM 38.5333 -121.4667 163° South 276 318 9,600 2,450 Climbing Northern Cal TRACON
06:23PM 38.4667 -121.4167 150° Southeast 330 380 11,000 672 Climbing Northern Cal TRACON
06:24PM 38.3500 -121.3500 156° South 416 479 11,000  Level Northern Cal TRACON
06:25PM 38.2500 -121.3000 159° South 412 474 11,000  Level Northern Cal TRACON
06:26PM 38.1333 -121.3000 180° South 403 464 11,000  Level Northern Cal TRACON
06:27PM 38.0333 -121.3167 187° South 400 460 11,000  Level Northern Cal TRACON
06:28PM 37.9000 -121.3167 180° South 417 480 11,000  Level Northern Cal TRACON
06:29PM 37.8000 -121.3333 188° South 409 471 11,000  Level Northern Cal TRACON
06:30PM 37.6833 -121.3500 186° South 401 461 11,000 -350 Level Northern Cal TRACON
06:31PM 37.6000 -121.3833 198° South 309 356 10,300 -950 Descending Northern Cal TRACON
06:32PM 37.5333 -121.4333 211° Southwest 286 329 9,100 -1,526 Descending Northern Cal TRACON
06:33PM 37.4667 -121.4833 211° Southwest 279 321 7,400 -1,429 Descending Northern Cal TRACON
06:34PM 37.4000 -121.5333 211° Southwest 269 310 6,100 -716 Descending Northern Cal TRACON
06:35PM 37.3622 -121.5500 199° South 263 303 6,100 -58 Level Oakland Center
06:36PM 37.3194 -121.6256 235° Southwest 235 270 6,000 -585 Descending Oakland Center
06:37PM 37.2978 -121.6917 248° West 224 258 4,900 -1,171 Descending Oakland Center
06:38PM 37.2711 -121.7664 246° West 216 249 3,600 -1,317 Descending Oakland Center
06:39PM 37.2706 -121.8297 269° West 205 236 2,200 -1,122 Descending Oakland Center
06:40PM 37.3067 -121.8703 318° Northwest 185 213 1,300 -780 Descending Oakland Center
06:41PM 37.3347 -121.9011 319° Northwest 157 181 600 -585 Descending Oakland Center
06:42PM 37.3592 -121.9286 318° Northwest 134 154 100 -492 Descending Oakland Center
06:44PM 37.3627 -121.9291 North  Level Estimated

Login

Don't have an account? Register now (free) for customized features, flight alerts, and more!